Location: Alpha Ridge Park
(39.3209°N, 76.9128°W)
Time: 23:49:47
(UTC-04:00)

Transit 2A - Pass Details

Date: 26 May 2019
Orbit: 593 x 966 km, 66.7° (Epoch: 15 June)

Event Time Altitude Azimuth Distance (km) Brightness Sun altitude
Rises 15:13:28 0° 341° (NNW) 3,572 9.4 57.1°
Reaches altitude 10° 15:16:54 10° 358° (N) 2,570 8.7 56.5°
Maximum altitude 15:21:00 19° 42° (NE) 1,935 8.0 55.7°
Drops below altitude 10° 15:24:51 10° 86° (E) 2,394 8.3 55.0°
Sets 15:27:53 0° 105° (ESE) 3,245 9.0 54.5°
